Time,TemperatureF,DewpointF,PressureIn,WindDirection,WindDirectionDegrees,WindSpeedMPH,WindSpeedGustMPH,Humidity,HourlyPrecipIn,Conditions,Clouds,dailyrainin,SoftwareType,DateUTC
2013-03-17 00:03:00,29.0,21.0,30.05,North,360,0.0,6.0,71,0.00,,,0.01,,2013-03-17 04:03:00,
2013-03-17 00:12:00,29.0,21.0,30.05,North,360,0.0,6.0,71,0.00,,,0.01,,2013-03-17 04:12:00,
2013-03-17 00:23:00,29.0,21.0,30.05,NNW,346,0.0,6.0,71,0.00,,,0.01,,2013-03-17 04:23:00,
2013-03-17 00:32:00,29.0,21.0,30.05,North,349,0.0,0.0,72,0.00,,,0.00,,2013-03-17 04:32:00,
2013-03-17 00:42:00,29.0,21.0,30.05,North,349,0.0,0.0,72,0.00,,,0.00,,2013-03-17 04:42:00,
2013-03-17 00:53:00,29.0,21.0,30.05,North,349,0.0,0.0,72,0.00,,,0.00,,2013-03-17 04:53:00,
2013-03-17 01:02:00,29.0,21.0,30.06,North,349,0.0,1.0,73,0.00,,,0.00,,2013-03-17 05:02:00,
2013-03-17 01:12:00,29.0,21.0,30.06,North,349,0.0,1.0,73,0.00,,,0.00,,2013-03-17 05:12:00,
2013-03-17 01:22:00,29.0,21.0,30.06,North,349,0.0,2.0,73,0.00,,,0.00,,2013-03-17 05:22:00,
2013-03-17 01:32:00,29.0,22.0,30.06,North,349,0.0,1.0,74,0.00,,,0.00,,2013-03-17 05:32:00,
2013-03-17 01:42:00,29.0,22.0,30.06,North,349,0.0,1.0,74,0.00,,,0.00,,2013-03-17 05:42:00,
2013-03-17 01:52:00,29.0,22.0,30.06,North,349,0.0,0.0,74,0.00,,,0.00,,2013-03-17 05:52:00,
2013-03-17 02:02:00,29.0,22.0,30.06,NNW,346,0.0,4.0,75,0.00,,,0.00,,2013-03-17 06:02:00,
2013-03-17 02:12:00,29.0,22.0,30.06,NNW,346,0.0,4.0,75,0.00,,,0.00,,2013-03-17 06:12:00,
2013-03-17 02:22:00,29.0,22.0,30.06,NNW,346,0.0,1.0,76,0.00,,,0.00,,2013-03-17 06:22:00,
2013-03-17 02:32:00,29.0,22.0,30.06,NNW,347,0.0,0.0,76,0.00,,,0.00,,2013-03-17 06:32:00,
2013-03-17 02:42:00,29.0,22.0,30.06,NNW,347,0.0,0.0,76,0.00,,,0.00,,2013-03-17 06:42:00,
2013-03-17 02:52:00,29.0,22.0,30.06,NNW,346,0.0,2.0,76,0.00,,,0.00,,2013-03-17 06:52:00,
2013-03-17 03:02:00,30.0,23.0,30.06,NNW,346,0.0,2.0,75,0.00,,,0.00,,2013-03-17 07:02:00,
2013-03-17 03:12:00,30.0,23.0,30.06,NNW,346,0.0,2.0,75,0.00,,,0.00,,2013-03-17 07:12:00,
2013-03-17 03:22:00,30.0,23.0,30.06,WNW,295,1.0,6.0,74,0.00,,,0.00,,2013-03-17 07:22:00,
2013-03-17 03:32:00,30.0,22.0,30.07,NW,323,0.0,6.0,73,0.00,,,0.00,,2013-03-17 07:32:00,
2013-03-17 03:42:00,30.0,22.0,30.07,NW,323,0.0,6.0,73,0.00,,,0.00,,2013-03-17 07:42:00,
2013-03-17 03:52:00,30.0,22.0,30.06,North,360,0.0,1.0,73,0.00,,,0.00,,2013-03-17 07:52:00,
2013-03-17 04:02:00,30.0,22.0,30.06,North,360,0.0,4.0,73,0.00,,,0.00,,2013-03-17 08:02:00,
2013-03-17 04:12:00,30.0,22.0,30.06,NNE,23,0.0,6.0,73,0.00,,,0.00,,2013-03-17 08:12:00,
2013-03-17 04:22:00,30.0,22.0,30.06,NNE,23,0.0,6.0,73,0.00,,,0.00,,2013-03-17 08:22:00,
2013-03-17 04:32:00,30.0,23.0,30.07,NNE,18,0.0,9.0,75,0.00,,,0.00,,2013-03-17 08:32:00,
2013-03-17 04:42:00,30.0,23.0,30.07,NNE,18,0.0,9.0,75,0.00,,,0.00,,2013-03-17 08:42:00,
2013-03-17 04:52:00,30.0,23.0,30.06,NNE,25,1.0,10.0,75,0.00,,,0.00,,2013-03-17 08:52:00,
2013-03-17 05:02:00,30.0,22.0,30.06,NNE,23,1.0,9.0,73,0.00,,,0.00,,2013-03-17 09:02:00,
2013-03-17 05:12:00,30.0,22.0,30.06,NNE,23,1.0,9.0,73,0.00,,,0.00,,2013-03-17 09:12:00,
2013-03-17 05:22:00,30.0,22.0,30.06,NE,35,3.0,10.0,71,0.00,,,0.00,,2013-03-17 09:22:00,
2013-03-17 05:32:00,30.0,21.0,30.07,North,356,2.0,9.0,69,0.00,,,0.00,,2013-03-17 09:32:00,
2013-03-17 05:42:00,30.0,21.0,30.07,North,356,2.0,9.0,69,0.00,,,0.00,,2013-03-17 09:42:00,
2013-03-17 05:53:00,30.0,21.0,30.06,North,352,0.0,6.0,68,0.00,,,0.00,,2013-03-17 09:53:00,
2013-03-17 06:03:00,30.0,21.0,30.07,NNW,347,0.0,6.0,68,0.00,,,0.00,,2013-03-17 10:03:00,
2013-03-17 06:13:00,30.0,21.0,30.07,NNW,347,0.0,6.0,68,0.00,,,0.00,,2013-03-17 10:13:00,
2013-03-17 06:23:00,30.0,21.0,30.06,North,350,0.0,4.0,69,0.00,,,0.00,,2013-03-17 10:23:00,
2013-03-17 06:33:00,30.0,21.0,30.07,NNW,342,1.0,6.0,69,0.00,,,0.00,,2013-03-17 10:33:00,
2013-03-17 06:42:00,30.0,21.0,30.07,NNW,342,1.0,6.0,69,0.00,,,0.00,,2013-03-17 10:42:00,
2013-03-17 06:52:00,29.0,20.0,30.08,North,7,1.0,10.0,69,0.00,,,0.00,,2013-03-17 10:52:00,
2013-03-17 07:02:00,29.0,20.0,30.09,NE,35,2.0,8.0,69,0.00,,,0.00,,2013-03-17 11:02:00,
2013-03-17 07:12:00,29.0,20.0,30.09,NE,35,2.0,8.0,69,0.00,,,0.00,,2013-03-17 11:12:00,
2013-03-17 07:22:00,29.0,19.0,30.09,NE,49,0.0,10.0,66,0.00,,,0.00,,2013-03-17 11:22:00,
2013-03-17 07:32:00,29.0,19.0,30.11,NNE,30,1.0,7.0,65,0.00,,,0.00,,2013-03-17 11:32:00,
2013-03-17 07:42:00,29.0,19.0,30.11,NNE,30,1.0,7.0,65,0.00,,,0.00,,2013-03-17 11:42:00,
2013-03-17 07:52:00,29.0,18.0,30.11,NNE,25,1.0,7.0,64,0.00,,,0.00,,2013-03-17 11:52:00,
2013-03-17 08:02:00,28.0,17.0,30.12,NE,45,0.0,9.0,63,0.00,,,0.00,,2013-03-17 12:02:00,
2013-03-17 08:12:00,28.0,17.0,30.12,NE,45,0.0,9.0,63,0.00,,,0.00,,2013-03-17 12:12:00,
2013-03-17 08:22:00,28.0,17.0,30.13,NE,45,0.0,2.0,64,0.00,,,0.00,,2013-03-17 12:22:00,
2013-03-17 08:32:00,28.0,17.0,30.14,ENE,59,0.0,4.0,64,0.00,,,0.00,,2013-03-17 12:32:00,
2013-03-17 08:42:00,28.0,17.0,30.14,ENE,59,0.0,4.0,64,0.00,,,0.00,,2013-03-17 12:42:00,
2013-03-17 08:52:00,28.0,17.0,30.15,ENE,59,0.0,2.0,64,0.00,,,0.00,,2013-03-17 12:52:00,
2013-03-17 09:02:00,29.0,18.0,30.15,NE,54,0.0,4.0,64,0.00,,,0.00,,2013-03-17 13:02:00,
2013-03-17 09:12:00,29.0,18.0,30.15,NE,54,0.0,4.0,64,0.00,,,0.00,,2013-03-17 13:12:00,
2013-03-17 09:22:00,29.0,18.0,30.15,NE,35,1.0,4.0,64,0.00,,,0.00,,2013-03-17 13:22:00,
2013-03-17 09:32:00,29.0,18.0,30.16,NE,54,0.0,2.0,64,0.00,,,0.00,,2013-03-17 13:32:00,
2013-03-17 09:42:00,29.0,18.0,30.16,NE,54,0.0,2.0,64,0.00,,,0.00,,2013-03-17 13:42:00,
2013-03-17 09:52:00,29.0,18.0,30.16,East,85,1.0,10.0,63,0.00,,,0.00,,2013-03-17 13:52:00,
2013-03-17 10:02:00,30.0,18.0,30.16,NE,41,6.0,11.0,60,0.00,,,0.00,,2013-03-17 14:02:00,
2013-03-17 10:12:00,30.0,18.0,30.16,NE,41,6.0,11.0,60,0.00,,,0.00,,2013-03-17 14:12:00,
2013-03-17 10:22:00,30.0,17.0,30.15,ENE,64,4.0,10.0,59,0.00,,,0.00,,2013-03-17 14:22:00,
2013-03-17 10:32:00,30.0,17.0,30.16,NNE,32,5.0,14.0,57,0.00,,,0.00,,2013-03-17 14:32:00,
2013-03-17 10:42:00,30.0,17.0,30.16,NNE,32,5.0,14.0,57,0.00,,,0.00,,2013-03-17 14:42:00,
2013-03-17 10:53:00,30.0,17.0,30.16,NNE,28,1.0,11.0,59,0.00,,,0.00,,2013-03-17 14:53:00,
2013-03-17 11:02:00,30.0,19.0,30.16,East,79,0.0,9.0,62,0.00,,,0.00,,2013-03-17 15:02:00,
2013-03-17 11:12:00,30.0,19.0,30.16,East,79,0.0,9.0,62,0.00,,,0.00,,2013-03-17 15:12:00,
2013-03-17 11:23:00,31.0,18.0,30.16,NE,41,0.0,9.0,59,0.00,,,0.00,,2013-03-17 15:23:00,
2013-03-17 11:33:00,31.0,19.0,30.16,East,95,2.0,8.0,60,0.00,,,0.00,,2013-03-17 15:33:00,
2013-03-17 11:42:00,31.0,19.0,30.16,East,95,2.0,8.0,60,0.00,,,0.00,,2013-03-17 15:42:00,
2013-03-17 11:53:00,31.0,19.0,30.17,ESE,119,2.0,8.0,61,0.00,,,0.00,,2013-03-17 15:53:00,
2013-03-17 12:03:00,31.0,20.0,30.16,ENE,73,4.0,11.0,62,0.00,,,0.00,,2013-03-17 16:03:00,
2013-03-17 12:12:00,31.0,20.0,30.16,ENE,73,4.0,11.0,62,0.00,,,0.00,,2013-03-17 16:12:00,
2013-03-17 12:22:00,31.0,19.0,30.16,NNE,32,3.0,9.0,60,0.00,,,0.00,,2013-03-17 16:22:00,
2013-03-17 12:33:00,31.0,19.0,30.16,ENE,66,2.0,8.0,60,0.00,,,0.00,,2013-03-17 16:33:00,
2013-03-17 12:42:00,31.0,19.0,30.16,ENE,66,2.0,8.0,60,0.00,,,0.00,,2013-03-17 16:42:00,
2013-03-17 12:52:00,31.0,18.0,30.16,East,85,3.0,9.0,59,0.00,,,0.00,,2013-03-17 16:52:00,
2013-03-17 13:02:00,32.0,20.0,30.17,East,100,1.0,9.0,62,0.00,,,0.00,,2013-03-17 17:02:00,
2013-03-17 13:12:00,32.0,20.0,30.17,East,100,1.0,9.0,62,0.00,,,0.00,,2013-03-17 17:12:00,
2013-03-17 13:22:00,32.0,20.0,30.16,ENE,66,5.0,10.0,60,0.00,,,0.00,,2013-03-17 17:22:00,
2013-03-17 13:33:00,32.0,19.0,30.16,SSE,152,5.0,14.0,59,0.00,,,0.00,,2013-03-17 17:33:00,
2013-03-17 13:42:00,32.0,19.0,30.16,SSE,152,5.0,14.0,59,0.00,,,0.00,,2013-03-17 17:42:00,
2013-03-17 13:53:00,33.0,20.0,30.16,East,89,2.0,7.0,58,0.00,,,0.00,,2013-03-17 17:53:00,
2013-03-17 14:02:00,32.0,19.0,30.16,East,88,4.0,11.0,57,0.00,,,0.00,,2013-03-17 18:02:00,
2013-03-17 14:12:00,32.0,19.0,30.16,East,88,4.0,11.0,57,0.00,,,0.00,,2013-03-17 18:12:00,
2013-03-17 14:22:00,34.0,20.0,30.16,South,182,3.0,11.0,56,0.00,,,0.00,,2013-03-17 18:22:00,
2013-03-17 14:32:00,33.0,19.0,30.16,South,175,1.0,8.0,57,0.00,,,0.00,,2013-03-17 18:32:00,
2013-03-17 14:42:00,33.0,19.0,30.16,South,175,1.0,8.0,57,0.00,,,0.00,,2013-03-17 18:42:00,
2013-03-17 14:52:00,34.0,20.0,30.15,East,96,3.0,10.0,55,0.00,,,0.00,,2013-03-17 18:52:00,
2013-03-17 15:02:00,34.0,20.0,30.15,SSE,164,1.0,8.0,55,0.00,,,0.00,,2013-03-17 19:02:00,
2013-03-17 15:12:00,34.0,20.0,30.15,SSE,164,1.0,8.0,55,0.00,,,0.00,,2013-03-17 19:12:00,
2013-03-17 15:22:00,35.0,20.0,30.13,ENE,73,5.0,18.0,53,0.00,,,0.00,,2013-03-17 19:22:00,
2013-03-17 15:33:00,35.0,20.0,30.12,ENE,76,2.0,10.0,54,0.00,,,0.00,,2013-03-17 19:33:00,
2013-03-17 15:42:00,35.0,20.0,30.12,ENE,76,2.0,10.0,54,0.00,,,0.00,,2013-03-17 19:42:00,
2013-03-17 15:53:00,36.0,20.0,30.11,SE,124,2.0,9.0,51,0.00,,,0.00,,2013-03-17 19:53:00,
2013-03-17 16:02:00,37.0,21.0,30.11,SE,128,0.0,8.0,52,0.00,,,0.00,,2013-03-17 20:02:00,
2013-03-17 16:12:00,37.0,21.0,30.11,SE,128,0.0,8.0,52,0.00,,,0.00,,2013-03-17 20:12:00,
2013-03-17 16:22:00,36.0,19.0,30.10,ESE,114,3.0,8.0,50,0.00,,,0.00,,2013-03-17 20:22:00,
2013-03-17 16:32:00,36.0,19.0,30.10,ESE,102,2.0,9.0,50,0.00,,,0.00,,2013-03-17 20:32:00,
2013-03-17 16:42:00,36.0,19.0,30.10,ESE,102,2.0,9.0,50,0.00,,,0.00,,2013-03-17 20:42:00,
2013-03-17 16:52:00,37.0,19.0,30.09,SE,134,1.0,8.0,48,0.00,,,0.00,,2013-03-17 20:52:00,
2013-03-17 17:02:00,36.0,18.0,30.09,ESE,103,6.0,10.0,48,0.00,,,0.00,,2013-03-17 21:02:00,
2013-03-17 17:12:00,36.0,18.0,30.09,ESE,103,6.0,10.0,48,0.00,,,0.00,,2013-03-17 21:12:00,
2013-03-17 17:22:00,37.0,19.0,30.08,East,95,2.0,10.0,47,0.00,,,0.00,,2013-03-17 21:22:00,
2013-03-17 17:33:00,37.0,19.0,30.08,ESE,120,5.0,10.0,47,0.00,,,0.00,,2013-03-17 21:33:00,
2013-03-17 17:42:00,37.0,19.0,30.08,ESE,120,5.0,10.0,47,0.00,,,0.00,,2013-03-17 21:42:00,
2013-03-17 17:52:00,37.0,19.0,30.08,SSE,148,2.0,9.0,48,0.00,,,0.00,,2013-03-17 21:52:00,
2013-03-17 18:03:00,36.0,19.0,30.07,ESE,119,1.0,8.0,49,0.00,,,0.00,,2013-03-17 22:03:00,
2013-03-17 18:12:00,36.0,19.0,30.06,NE,54,5.0,9.0,49,0.00,,,0.00,,2013-03-17 22:12:00,
2013-03-17 18:23:00,36.0,19.0,30.06,NE,54,5.0,9.0,49,0.00,,,0.00,,2013-03-17 22:23:00,
2013-03-17 18:33:00,37.0,19.0,30.06,SE,128,1.0,8.0,48,0.00,,,0.00,,2013-03-17 22:33:00,
2013-03-17 18:42:00,37.0,19.0,30.06,SE,128,1.0,8.0,48,0.00,,,0.00,,2013-03-17 22:42:00,
2013-03-17 18:53:00,36.0,19.0,30.06,ENE,75,2.0,9.0,50,0.00,,,0.00,,2013-03-17 22:53:00,
2013-03-17 19:02:00,35.0,19.0,30.07,South,171,1.0,8.0,51,0.00,,,0.00,,2013-03-17 23:02:00,
2013-03-17 19:12:00,35.0,19.0,30.07,South,171,1.0,8.0,51,0.00,,,0.00,,2013-03-17 23:12:00,
2013-03-17 19:22:00,35.0,19.0,30.07,ESE,114,3.0,10.0,52,0.00,,,0.00,,2013-03-17 23:22:00,
2013-03-17 19:32:00,34.0,18.0,30.08,SE,138,3.0,8.0,52,0.00,,,0.00,,2013-03-17 23:32:00,
2013-03-17 19:42:00,34.0,18.0,30.08,SE,138,3.0,8.0,52,0.00,,,0.00,,2013-03-17 23:42:00,
2013-03-17 19:53:00,34.0,19.0,30.08,ESE,117,4.0,8.0,54,0.00,,,0.00,,2013-03-17 23:53:00,
2013-03-17 20:03:00,33.0,19.0,30.09,SE,134,2.0,6.0,57,0.00,,,0.00,,2013-03-18 00:03:00,
2013-03-17 20:12:00,33.0,19.0,30.09,SE,134,2.0,6.0,57,0.00,,,0.00,,2013-03-18 00:12:00,
2013-03-17 20:22:00,33.0,20.0,30.09,NNE,25,1.0,8.0,58,0.00,,,0.00,,2013-03-18 00:22:00,
2013-03-17 20:33:00,32.0,19.0,30.09,SE,133,1.0,7.0,59,0.00,,,0.00,,2013-03-18 00:33:00,
2013-03-17 20:42:00,32.0,19.0,30.09,SE,133,1.0,7.0,59,0.00,,,0.00,,2013-03-18 00:42:00,
2013-03-17 20:52:00,31.0,20.0,30.09,SE,133,3.0,9.0,62,0.00,,,0.00,,2013-03-18 00:52:00,
2013-03-17 21:01:00,31.0,20.0,30.08,SE,136,5.0,9.0,63,0.00,,,0.00,,2013-03-18 01:01:00,
2013-03-17 21:12:00,31.0,20.0,30.08,SE,136,5.0,9.0,63,0.00,,,0.00,,2013-03-18 01:12:00,
2013-03-17 21:22:00,31.0,20.0,30.08,ESE,119,0.0,9.0,63,0.00,,,0.00,,2013-03-18 01:22:00,
2013-03-17 21:32:00,30.0,19.0,30.07,SE,144,2.0,8.0,64,0.00,,,0.00,,2013-03-18 01:32:00,
2013-03-17 21:42:00,30.0,19.0,30.07,SE,144,2.0,8.0,64,0.00,,,0.00,,2013-03-18 01:42:00,
2013-03-17 21:52:00,30.0,19.0,30.07,ENE,61,2.0,6.0,64,0.00,,,0.00,,2013-03-18 01:52:00,
2013-03-17 22:02:00,30.0,19.0,30.06,SE,136,0.0,8.0,64,0.00,,,0.00,,2013-03-18 02:02:00,
2013-03-17 22:12:00,30.0,19.0,30.06,SE,136,0.0,8.0,64,0.00,,,0.00,,2013-03-18 02:12:00,
2013-03-17 22:22:00,30.0,20.0,30.05,South,171,5.0,11.0,66,0.00,,,0.00,,2013-03-18 02:22:00,
2013-03-17 22:32:00,29.0,19.0,30.05,SE,124,7.0,14.0,65,0.00,,,0.00,,2013-03-18 02:32:00,
2013-03-17 22:42:00,29.0,19.0,30.05,SE,124,7.0,14.0,65,0.00,,,0.00,,2013-03-18 02:42:00,
2013-03-17 22:52:00,29.0,19.0,30.05,SE,138,6.0,14.0,66,0.00,,,0.00,,2013-03-18 02:52:00,
2013-03-17 23:02:00,29.0,19.0,30.05,East,89,2.0,10.0,67,0.00,,,0.00,,2013-03-18 03:02:00,
2013-03-17 23:11:00,29.0,19.0,30.05,East,89,2.0,10.0,67,0.00,,,0.00,,2013-03-18 03:11:00,
2013-03-17 23:22:00,29.0,20.0,30.05,SE,134,4.0,9.0,68,0.00,,,0.00,,2013-03-18 03:22:00,
2013-03-17 23:33:00,28.0,19.0,30.04,SE,141,3.0,8.0,68,0.00,,,0.00,,2013-03-18 03:33:00,
2013-03-17 23:42:00,28.0,19.0,30.04,SE,141,3.0,8.0,68,0.00,,,0.00,,2013-03-18 03:42:00,
2013-03-17 23:53:00,28.0,19.0,30.03,East,86,1.0,9.0,69,0.00,,,0.00,,2013-03-18 03:53:00,